[[{"header":{"parameterUnit":"m.s-1","parameterCategory":1,"la1":30.2991,"la2":30.254,"lo1":-89.0895,"lo2":-89.0444,"dy":0.0017,"dx":0.0017,"nx":28,"ny":28,"refTime":"2024-07-06T09:00:00:Z","depth":0,"parameterNumber":2,"parameterNumberName":"U-component_of_WINDS"},"data":[0,0,0,0,0,0,0,0,0,0,0,0,0,0,0,0,0,0,0,0,0,0,0,0,0,0,0,0,0,0,0,0,0,0,0,0,0,0,0,0,0,0,0,0,0,0,0,0,0,0,0,0,0,0,0,0,0,0,-0.7867,-0.7867,0,-0.7835,-0.7834,-0.7834,-0.7806,-0.7806,-0.7806,-0.7806,-0.7771,-0.7771,-0.777,0,0,0,0,0,0,0,0,0,0,0,0,0,-0.7905,-0.7904,-0.7867,-0.7867,-0.7867,-0.7835,-0.7834,-0.7834,-0.7807,-0.7806,-0.7806,-0.7805,-0.7771,-0.7771,-0.777,0,0,0,0,0,0,0,0,0,0,0,0,0,-0.7882,-0.7904,-0.7868,-0.7849,-0.7847,-0.7835,-0.7834,-0.7834,-0.7807,-0.7806,-0.7806,-0.7805,-0.7772,-0.7771,-0.777,-0.7773,0,0,-0.7767,-0.7766,0,0,0,0,0,0,0,0,-0.7883,-0.7881,-0.7852,-0.785,-0.7848,-0.7824,-0.7835,-0.7813,-0.7807,-0.7822,-0.7806,-0.7805,-0.7789,-0.7787,-0.7781,-0.7771,-0.7769,-0.7767,-0.7766,-0.7766,-0.7765,0,0,0,0,0,0,0,-0.7885,-0.7882,-0.7854,-0.7852,-0.7849,-0.7842,-0.7838,-0.783,-0.7808,-0.7821,-0.7819,-0.7815,-0.7788,-0.7782,-0.778,-0.7769,-0.7767,-0.7766,-0.7765,-0.7765,-0.7757,-0.7757,0,0,0,0,0,0,-0.7889,-0.7883,-0.7855,-0.7853,-0.7865,-0.7842,-0.7838,-0.7832,-0.7808,-0.7804,-0.7816,-0.7814,-0.7784,-0.7782,-0.7779,-0.7779,-0.7766,-0.7765,-0.7764,-0.7756,-0.7757,-0.7757,0,0,0,0,0,0,-0.789,-0.7887,-0.7857,-0.7868,-0.7863,-0.7842,-0.7836,-0.7832,-0.7826,-0.7805,-0.78,-0.7814,-0.7784,-0.7781,-0.7774,-0.7778,-0.7764,-0.7763,-0.7756,-0.7756,-0.7757,-0.778,0,0,0,0,0,0,-0.7892,-0.7888,-0.7889,-0.7868,-0.7863,-0.7853,-0.7836,-0.7832,-0.7825,-0.7823,-0.7802,-0.7798,-0.7783,-0.7775,-0.7773,-0.7776,-0.7763,-0.7755,-0.7756,-0.7757,-0.7779,-0.7782,-0.7784,0,0,0,0,0,-0.7893,-0.7897,-0.7889,-0.7886,-0.7864,-0.7853,-0.785,-0.7833,-0.7825,-0.7826,-0.7812,-0.7799,-0.7778,-0.7775,-0.7772,-0.7775,-0.7755,-0.7756,-0.7757,-0.7778,-0.7781,-0.7784,0,0,0,0,0,0,-0.7919,-0.7894,-0.7885,-0.7883,-0.787,-0.7849,-0.7849,-0.7837,-0.7826,-0.7824,-0.7803,-0.7799,-0.7794,-0.7784,-0.7781,-0.7775,-0.7765,-0.7765,-0.7782,-0.7785,-0.7787,-0.7789,-0.7762,0,0,0,0,0,-0.7925,-0.7919,-0.7897,-0.7897,-0.7891,-0.7871,-0.7866,-0.7853,-0.7839,-0.7834,-0.7819,-0.7806,-0.7796,-0.779,-0.778,-0.7778,-0.7772,-0.7778,-0.778,-0.7782,-0.7782,-0.7779,-0.7781,-0.776,-0.776,-0.776,0,0,-0.7936,-0.7922,-0.7919,-0.7902,-0.7891,-0.7883,-0.7867,-0.7861,-0.7855,-0.7833,-0.7825,-0.7814,-0.7797,-0.7793,-0.779,-0.7784,-0.7787,-0.7783,-0.7785,-0.7784,-0.778,-0.7782,-0.7783,-0.776,-0.776,-0.776,0,0,-0.7953,-0.7942,-0.794,-0.7929,-0.7912,-0.7899,-0.7899,-0.7878,-0.787,-0.7862,-0.7845,-0.7837,-0.7821,-0.781,-0.7802,-0.7813,-0.78,-0.781,-0.7822,-0.7818,-0.782,-0.7821,-0.7824,-0.7825,-0.781,-0.781,-0.781,0,-0.7969,-0.7959,-0.7941,-0.7935,-0.7927,-0.7907,-0.7904,-0.7894,-0.7875,-0.7869,-0.7863,-0.7841,-0.7829,-0.782,-0.7823,-0.7818,-0.7815,-0.7812,-0.7821,-0.7822,-0.7823,-0.7825,-0.7827,-0.7812,-0.7812,-0.7811,-0.7811,0,-0.7978,-0.7971,-0.7971,-0.7953,-0.7945,-0.7941,-0.7922,-0.7916,-0.7904,-0.7891,-0.7882,-0.7867,-0.7852,-0.7849,-0.7838,-0.7838,-0.7835,-0.7825,-0.7814,-0.7827,-0.7828,-0.7829,-0.7813,-0.7813,-0.7813,-0.7812,0,0,-0.8011,-0.7982,-0.7982,-0.7973,-0.7953,-0.7946,-0.794,-0.7926,-0.7921,-0.7908,-0.7902,-0.7888,-0.7878,-0.7869,-0.7856,-0.7854,-0.7861,-0.7844,-0.7843,-0.7847,-0.7859,-0.7865,-0.7867,-0.7853,-0.7853,-0.7853,-0.786,0,-0.8023,-0.8012,-0.7996,-0.799,-0.7982,-0.7962,-0.7957,-0.7943,-0.793,-0.7921,-0.7907,-0.7897,-0.7886,-0.788,-0.7877,-0.7861,-0.7863,-0.7861,-0.7845,-0.7845,-0.7849,-0.7868,-0.7875,-0.7882,-0.786,-0.786,-0.786,0,-0.8036,-0.8024,-0.8018,-0.7997,-0.7993,-0.7988,-0.7973,-0.7965,-0.7949,-0.7939,-0.7929,-0.7914,-0.7906,-0.7896,-0.7884,-0.7882,-0.7875,-0.7866,-0.7866,-0.7863,-0.7853,-0.7864,-0.7884,-0.7885,-0.7861,-0.7861,-0.7861,0,-0.8059,-0.8041,-0.8034,-0.8027,-0.8003,-0.8,-0.799,-0.7973,-0.7965,-0.7951,-0.7946,-0.7932,-0.7923,-0.7912,-0.7894,-0.7889,-0.7883,-0.7872,-0.7874,-0.7874,-0.7873,-0.7873,-0.7891,-0.787,-0.787,-0.787,-0.787,0,-0.8074,-0.807,-0.8044,-0.804,-0.8035,-0.8015,-0.801,-0.7998,-0.7983,-0.7975,-0.7957,-0.795,-0.7927,-0.7917,-0.7902,-0.7893,-0.789,-0.7881,-0.7877,-0.7882,-0.7883,-0.7877,-0.7875,-0.787,-0.787,-0.787,-0.787,0,-0.8098,-0.808,-0.8071,-0.8049,-0.8043,-0.804,-0.802,-0.8015,-0.8001,-0.7991,-0.7988,-0.7966,-0.7953,-0.7933,-0.7915,-0.7905,-0.7897,-0.7892,-0.7903,-0.79,-0.7903,-0.7902,-0.7916,-0.7916,-0.7897,-0.7897,-0.7897,0,-0.8108,-0.8104,-0.8082,-0.8075,-0.8065,-0.8056,-0.8047,-0.8027,-0.8019,-0.8,-0.7996,-0.7982,-0.7969,-0.7949,-0.7931,-0.7916,-0.7909,-0.7915,-0.7906,-0.7911,-0.7907,-0.7907,-0.7906,-0.7916,-0.7917,-0.7917,-0.7917,0,-0.8127,-0.8118,-0.8108,-0.8093,-0.8084,-0.8072,-0.8058,-0.8054,-0.8031,-0.8023,-0.8009,-0.7999,-0.798,-0.7965,-0.7948,-0.7936,-0.7922,-0.792,-0.7919,-0.7924,-0.793,-0.7925,-0.7907,-0.792,-0.7919,-0.7919,-0.7919,-0.7919,-0.8143,-0.8139,-0.8122,-0.811,-0.8098,-0.8086,-0.8079,-0.8064,-0.8053,-0.8036,-0.8025,-0.8011,-0.7993,-0.7968,-0.7957,-0.7946,-0.794,-0.794,-0.7939,-0.7939,-0.794,-0.7933,-0.7942,-0.7942,-0.7942,-0.7942,-0.7942,0,-0.816,-0.8148,-0.8138,-0.812,-0.811,-0.8099,-0.8083,-0.8075,-0.8064,-0.8049,-0.8037,-0.8021,-0.8006,-0.7987,-0.797,-0.7965,-0.7958,-0.7961,-0.7961,-0.7958,-0.7947,-0.7949,-0.7967,-0.7967,-0.7967,-0.7967,-0.7967,-0.7967,-0.8168,-0.816,-0.8149,-0.8134,-0.8121,-0.8109,-0.8101,-0.8089,-0.8076,-0.8059,-0.8047,-0.8035,-0.8017,-0.7999,-0.7985,-0.798,-0.7974,-0.7979,-0.7971,-0.7961,-0.7959,-0.7957,-0.7958,-0.7978,-0.7978,-0.7983,-0.7983,-0.7983]},{"header":{"parameterUnit":"m.s-1","parameterCategory":1,"la1":30.2991,"la2":30.254,"lo1":-89.0895,"lo2":-89.0444,"dy":0.0017,"dx":0.0017,"nx":28,"ny":28,"refTime":"2024-07-06T09:00:00:Z","depth":0,"parameterNumber":3,"parameterNumberName":"V-component_of_WINDS"},"data":[0,0,0,0,0,0,0,0,0,0,0,0,0,0,0,0,0,0,0,0,0,0,0,0,0,0,0,0,0,0,0,0,0,0,0,0,0,0,0,0,0,0,0,0,0,0,0,0,0,0,0,0,0,0,0,0,0,0,-1.5159,-1.5159,0,-1.5156,-1.5156,-1.5156,-1.5152,-1.5152,-1.5152,-1.5152,-1.5147,-1.5147,-1.5147,0,0,0,0,0,0,0,0,0,0,0,0,0,-1.5159,-1.5159,-1.5159,-1.5159,-1.5159,-1.5156,-1.5156,-1.5156,-1.5152,-1.5152,-1.5152,-1.5152,-1.5147,-1.5147,-1.5147,0,0,0,0,0,0,0,0,0,0,0,0,0,-1.5158,-1.5159,-1.5159,-1.5156,-1.5156,-1.5156,-1.5156,-1.5156,-1.5152,-1.5152,-1.5152,-1.5151,-1.5147,-1.5147,-1.5147,-1.5149,0,0,-1.5147,-1.5147,0,0,0,0,0,0,0,0,-1.5158,-1.5158,-1.5157,-1.5156,-1.5156,-1.5154,-1.5154,-1.5153,-1.5152,-1.5153,-1.5152,-1.5151,-1.515,-1.5149,-1.5149,-1.5148,-1.5148,-1.5147,-1.5147,-1.5147,-1.5147,0,0,0,0,0,0,0,-1.5158,-1.5158,-1.5157,-1.5157,-1.5156,-1.5155,-1.5154,-1.5154,-1.5152,-1.5153,-1.5153,-1.5153,-1.5149,-1.5149,-1.5149,-1.5148,-1.5147,-1.5147,-1.5147,-1.5147,-1.5147,-1.5147,0,0,0,0,0,0,-1.5158,-1.5158,-1.5158,-1.5157,-1.5157,-1.5155,-1.5155,-1.5155,-1.5152,-1.5152,-1.5153,-1.5153,-1.5149,-1.5149,-1.5149,-1.5149,-1.5147,-1.5147,-1.5147,-1.5147,-1.5147,-1.5147,0,0,0,0,0,0,-1.5159,-1.5159,-1.5158,-1.5158,-1.5157,-1.5155,-1.5155,-1.5155,-1.5154,-1.5152,-1.5151,-1.5153,-1.5149,-1.5149,-1.5148,-1.5149,-1.5147,-1.5147,-1.5147,-1.5147,-1.5147,-1.5151,0,0,0,0,0,0,-1.5159,-1.5159,-1.516,-1.5158,-1.5157,-1.5158,-1.5155,-1.5155,-1.5154,-1.5154,-1.5152,-1.5151,-1.5149,-1.5149,-1.5148,-1.5149,-1.5147,-1.5147,-1.5147,-1.5147,-1.5151,-1.5151,-1.5152,0,0,0,0,0,-1.5159,-1.5161,-1.516,-1.516,-1.5159,-1.5158,-1.5158,-1.5156,-1.5155,-1.5155,-1.5153,-1.5151,-1.5149,-1.5149,-1.5148,-1.5149,-1.5147,-1.5147,-1.5147,-1.5151,-1.5151,-1.5152,0,0,0,0,0,0,-1.5163,-1.5161,-1.5159,-1.5161,-1.516,-1.5158,-1.5158,-1.5157,-1.5156,-1.5155,-1.5152,-1.5152,-1.5151,-1.515,-1.515,-1.5149,-1.5148,-1.5148,-1.515,-1.5151,-1.5151,-1.5151,-1.5147,0,0,0,0,0,-1.5164,-1.5164,-1.5162,-1.5164,-1.5163,-1.5161,-1.5161,-1.5159,-1.5158,-1.5157,-1.5155,-1.5153,-1.5152,-1.5151,-1.515,-1.515,-1.5149,-1.5151,-1.5151,-1.5151,-1.5151,-1.515,-1.5151,-1.5148,-1.5148,-1.5148,0,0,-1.5166,-1.5165,-1.5165,-1.5165,-1.5163,-1.5163,-1.5161,-1.5161,-1.516,-1.5157,-1.5156,-1.5155,-1.5152,-1.5152,-1.5152,-1.5151,-1.5152,-1.5151,-1.5152,-1.5152,-1.5151,-1.5151,-1.5151,-1.5148,-1.5148,-1.5148,0,0,-1.517,-1.517,-1.5171,-1.517,-1.5168,-1.5166,-1.5166,-1.5164,-1.5163,-1.5162,-1.516,-1.5159,-1.5157,-1.5155,-1.5154,-1.5156,-1.5154,-1.5156,-1.5158,-1.5157,-1.5157,-1.5157,-1.5157,-1.5157,-1.5156,-1.5156,-1.5156,0,-1.5173,-1.5173,-1.5171,-1.5171,-1.5171,-1.5168,-1.5168,-1.5167,-1.5165,-1.5164,-1.5163,-1.516,-1.5158,-1.5157,-1.5157,-1.5157,-1.5156,-1.5156,-1.5157,-1.5157,-1.5157,-1.5157,-1.5158,-1.5156,-1.5156,-1.5156,-1.5156,0,-1.5177,-1.5177,-1.5177,-1.5176,-1.5175,-1.5175,-1.5172,-1.5172,-1.517,-1.5168,-1.5167,-1.5164,-1.5162,-1.5162,-1.516,-1.516,-1.5159,-1.5158,-1.5156,-1.5158,-1.5158,-1.5158,-1.5156,-1.5156,-1.5156,-1.5156,0,0,-1.5184,-1.518,-1.5181,-1.5179,-1.5177,-1.5176,-1.5176,-1.5174,-1.5173,-1.5171,-1.517,-1.5168,-1.5167,-1.5165,-1.5163,-1.5162,-1.5163,-1.5161,-1.5161,-1.5161,-1.5162,-1.5163,-1.5163,-1.5162,-1.5162,-1.5162,-1.5162,0,-1.5187,-1.5187,-1.5184,-1.5184,-1.5184,-1.518,-1.518,-1.5177,-1.5175,-1.5174,-1.5171,-1.517,-1.5168,-1.5167,-1.5166,-1.5163,-1.5163,-1.5163,-1.516,-1.516,-1.5161,-1.5163,-1.5164,-1.5165,-1.5162,-1.5162,-1.5162,0,-1.5191,-1.519,-1.5189,-1.5186,-1.5186,-1.5185,-1.5183,-1.5182,-1.5179,-1.5177,-1.5175,-1.5173,-1.5171,-1.5169,-1.5167,-1.5167,-1.5165,-1.5163,-1.5163,-1.5163,-1.5161,-1.5162,-1.5165,-1.5165,-1.5162,-1.5162,-1.5162,0,-1.5195,-1.5193,-1.5193,-1.5192,-1.5188,-1.5188,-1.5186,-1.5183,-1.5182,-1.5179,-1.5178,-1.5176,-1.5174,-1.5172,-1.5168,-1.5167,-1.5165,-1.5164,-1.5163,-1.5163,-1.5163,-1.5163,-1.5165,-1.5162,-1.5162,-1.5162,-1.5162,0,-1.5199,-1.5199,-1.5195,-1.5194,-1.5194,-1.5191,-1.519,-1.5188,-1.5185,-1.5183,-1.518,-1.5179,-1.5174,-1.5172,-1.5169,-1.5167,-1.5166,-1.5164,-1.5164,-1.5165,-1.5165,-1.5163,-1.5163,-1.5162,-1.5162,-1.5162,-1.5162,0,-1.5204,-1.5201,-1.52,-1.5197,-1.5196,-1.5195,-1.5192,-1.5191,-1.5188,-1.5186,-1.5186,-1.5181,-1.5179,-1.5175,-1.5171,-1.5169,-1.5166,-1.5165,-1.5167,-1.5167,-1.5167,-1.5167,-1.5168,-1.5167,-1.5165,-1.5165,-1.5165,0,-1.5206,-1.5206,-1.5202,-1.5201,-1.52,-1.5198,-1.5197,-1.5193,-1.5191,-1.5188,-1.5187,-1.5184,-1.5181,-1.5176,-1.5173,-1.5169,-1.5168,-1.5168,-1.5167,-1.5168,-1.5167,-1.5167,-1.5167,-1.5169,-1.5169,-1.5169,-1.5169,0,-1.5211,-1.5209,-1.5207,-1.5205,-1.5203,-1.5201,-1.5199,-1.5198,-1.5193,-1.5192,-1.5189,-1.5187,-1.5182,-1.5179,-1.5175,-1.5172,-1.5169,-1.5169,-1.5169,-1.517,-1.5171,-1.517,-1.5168,-1.5169,-1.5169,-1.5169,-1.5169,-1.5169,-1.5214,-1.5213,-1.521,-1.5208,-1.5206,-1.5204,-1.5202,-1.5199,-1.5197,-1.5194,-1.5191,-1.5188,-1.5184,-1.5179,-1.5176,-1.5173,-1.5172,-1.5172,-1.5171,-1.5171,-1.5171,-1.5171,-1.5172,-1.5172,-1.5172,-1.5172,-1.5172,0,-1.5217,-1.5215,-1.5213,-1.521,-1.5208,-1.5206,-1.5203,-1.5201,-1.5199,-1.5196,-1.5193,-1.5189,-1.5185,-1.5181,-1.5177,-1.5175,-1.5174,-1.5174,-1.5174,-1.5174,-1.5173,-1.5173,-1.5176,-1.5176,-1.5176,-1.5176,-1.5176,-1.5176,-1.5219,-1.5218,-1.5216,-1.5213,-1.521,-1.5208,-1.5206,-1.5203,-1.5201,-1.5197,-1.5194,-1.5191,-1.5187,-1.5182,-1.5179,-1.5177,-1.5176,-1.5177,-1.5175,-1.5174,-1.5174,-1.5174,-1.5174,-1.5176,-1.5176,-1.5176,-1.5176,-1.5176]}]]